Flag for U.S.A. Weather past 2 weeks in Manassas, Virginia, U.S.A.

Now
77 °F

Partly sunny.


Feels Like: 79 °F
Forecast: 65 / 80 °F
Wind: 14 mph from Northwest

Location: Manassas Municipal

Current Time: Jul 28, 2014 at 7:49:44 PM

Latest Report: Jul 28, 2014 at 6:55 PM


Visibility: 10 mi

Pressure: 29.75 "Hg

Humidity: 51%

Dew point: 57 °F

Location of ManassasLocation

Historic Weather in Manassas — Graph

°F

Manassas temperature yesterday

Maximum temperature yesterday: 82 °F (at 3:55 PM)
Minimum temperature yesterday: 70 °F (at 5:55 AM)
Average temperature yesterday: 76 °F

Past Weeks' High & Low Weather Summary

 TemperatureHumidityPressure
High91 °F (Jul 23, 2:50 PM)100% (Jul 14, 4:35 PM)30.25 "Hg (Jul 14, 4:35 PM)
Low57 °F (Jul 25, 3:55 AM)37% (Jul 26, 11:50 AM)29.60 "Hg (Jul 28, 3:35 AM)
Average72 °F86%29.98 "Hg
* Reported Jul 13 5:45 PM — Jul 28 5:55 PM, Manassas, Weather by CustomWeather, © 2014

Note: Actual official high and low records may vary slightly from our data, if they occured in-between our weather recording intervals... More about our weather records

Advertising

Manassas weather history for previous 24 hours

 ConditionsComfort  
Time TempWeatherWind HumidityBarometerVisibility
5:55 PM
Jul 28
81 °FSunny.13 mph45%29.74 "Hg10 mi
4:45 PM81 °FScattered clouds.13 mph45%29.72 "Hg10 mi
3:55 PM81 °FScattered clouds.14 mph48%29.71 "Hg10 mi
2:55 PM81 °FBroken clouds.14 mph45%29.70 "Hg10 mi
12:45 PM79 °FCloudy.10 mph48%29.71 "Hg10 mi
11:55 AM79 °FMostly cloudy.13 mph54%29.70 "Hg10 mi
10:45 AM79 °FBroken clouds.10 mph54%29.68 "Hg10 mi
8:45 AM75 °FSunny.No wind83%29.65 "Hg10 mi
7:35 AM73 °FSunny.3 mph94%29.63 "Hg10 mi
7:15 AM70 °FPassing clouds.3 mph94%29.63 "Hg8 mi
6:55 AM68 °FClear.No wind100%29.63 "Hg5 mi
6:35 AM66 °FClear.No wind100%29.63 "Hg3 mi
6:15 AM66 °FClear.No wind100%29.62 "Hg3 mi
5:55 AM66 °FClear.No wind100%29.60 "Hg3 mi
5:35 AM66 °FClear.No wind100%29.61 "Hg7 mi
5:15 AM66 °FClear.No wind100%29.61 "Hg7 mi
4:55 AM68 °FClear.No wind94%29.61 "Hg10 mi
4:35 AM68 °FClear.No wind94%29.60 "Hg9 mi
4:15 AM68 °FClear.No wind94%29.60 "Hg10 mi
3:55 AM70 °FClear.No wind94%29.60 "Hg10 mi
3:35 AM70 °FPassing clouds.3 mph100%29.60 "Hg10 mi
3:15 AM70 °FPassing clouds.No wind94%29.62 "Hg10 mi
2:55 AM70 °FPassing clouds.No wind94%29.61 "Hg10 mi
2:35 AM70 °FPassing clouds.6 mph100%29.62 "Hg10 mi
2:15 AM72 °FClear.3 mph94%29.62 "Hg10 mi
1:55 AM72 °FClear.3 mph94%29.61 "Hg10 mi
1:35 AM72 °FClear.No wind100%29.62 "Hg10 mi
1:15 AM72 °FClear.3 mph94%29.62 "Hg10 mi
12:55 AM73 °FClear.No wind94%29.63 "Hg10 mi
12:35 AM75 °FPartly cloudy.7 mph94%29.62 "Hg10 mi
12:15 AM79 °FThunderstorms. Overcast.6 mph84%29.64 "Hg10 mi
11:55 PM
Jul 27
79 °FPassing clouds.6 mph84%29.66 "Hg10 mi
11:35 PM81 °FOvercast.7 mph79%29.66 "Hg10 mi
11:15 PM81 °FMostly cloudy.10 mph79%29.66 "Hg10 mi
10:55 PM79 °FPassing clouds.8 mph79%29.66 "Hg10 mi
10:35 PM79 °FPassing clouds.7 mph79%29.67 "Hg10 mi
10:15 PM79 °FPassing clouds.3 mph79%29.67 "Hg10 mi
9:55 PM79 °FPassing clouds.6 mph79%29.67 "Hg10 mi
9:35 PM79 °FMostly cloudy.6 mph79%29.67 "Hg10 mi
8:55 PM79 °FPartly sunny.3 mph79%29.69 "Hg10 mi
Weather by CustomWeather, © 2014

See weather overviewHow to use our weather pages